Regional Weather Roundup
Issued by NWS

Home | Current Version | Previous Version | Graphics & Text | Print | Product List | Glossary On
Versions: 1 2 3 4 5 6 7 8 9 10 11 12 13 14 15 16 17 18 19 20 21 22 23 24 25 26 27 28 29 30 31 32 33 34 35 36 37 38 39 40 41 42 43 44 45 46 47 48 49 50
000
ASUS43 KMPX 261301
RWRMN
WEATHER ROUNDUP FOR MINNESOTA
NATIONAL WEATHER SERVICE TWIN CITIES/CHANHASSEN MN
800 AM CDT WED APR 26 2017


NOTE: "FAIR" INDICATES FEW OR NO CLOUDS BELOW 12,000 FEET WITH NO
SIGNIFICANT WEATHER AND/OR OBSTRUCTIONS TO VISIBILITY. N/A MEANS
CURRENT SKY AND/OR WEATHER CONDITIONS ARE NOT AVAILABLE.

MNZ060>063-068>070-261400-
   Twin Cities Metro

CITY           SKY/WX    TMP DP  RH WIND       PRES   REMARKS
TWIN CITIES    LGT RAIN  36  33  89 N14       29.50S
ST PAUL        LGT RAIN  37  35  92 N12       29.50F
CRYSTAL        LGT RAIN  35  31  85 N14       29.51R FOG     WCI  26
BLAINE         LGT RAIN  36  36 100 N13G20    29.51R
LAKEVILLE      LGT RAIN  36  36 100 NW10      29.49R
EDEN PRAIRIE   LGT RAIN  37  34  89 N10       29.50R FOG
SOUTH ST PAUL  LGT RAIN  37  37 100 N13       29.49S
LAKE ELMO      MIX PCPN  36  34  93 N9G18     29.50R
$$
MNZ001>005-007-008-013>017-022>024-027-028-261400-
   Northwest Minnesota

CITY           SKY/WX    TMP DP  RH WIND       PRES   REMARKS
BEMIDJI        LGT SNOW  24  22  90 NE9       29.72S WCI  15
HALLOCK        CLOUDY    30  23  74 NE17      29.87S WCI  18
ROSEAU         CLOUDY    27  21  80 NE17G25   29.86R WCI  14
WARROAD        CLOUDY    27  21  80 NE18G29   29.86R WCI  13
THIEF RVR FALL FLURRIES  27  23  85 NE21      29.80S WCI  13
CROOKSTON      CLOUDY    28  25  86 NE18      29.82R WCI  16
FOSSTON        FLURRIES  25  23  93 N15G22    29.75S WCI  12
DETROIT LAKES  CLOUDY    30  27  86 NE9       29.70R WCI  22
MOORHEAD       LGT SNOW  28  27  93 N9        29.75S VSB 3/4 WCI  20
PARK RAPIDS    LGT SNOW  28  22  78 N14       29.67R WCI  17
MAHNOMEN       CLOUDY    28  25  89 NE6       29.73R WCI  22
$$
MNZ006-009>011-018-025>026-261400-
   North Central Minnesota

CITY           SKY/WX    TMP DP  RH WIND       PRES   REMARKS
BAUDETTE       CLOUDY    25  19  78 NE15      29.82S WCI  13
FLAG ISLAND    CLOUDY    25  19  80 NE23G32   29.88R WCI  10
INTL FALLS     LGT SNOW  24  18  77 NE16G24   29.79F VSB 1   WCI  11
WASKISH        LGT SNOW  25  21  86 NE9G18    29.77S WCI  15
BIG FORK       LGT SNOW  25  21  86 N8G17     29.72F WCI  16
LONGVILLE      LGT SNOW  27  27 100 NE6       29.66S WCI  20
GRAND RAPIDS   LGT SNOW  27  24  89 N10       29.68F FOG     WCI  17
CRANE LAKE     LGT SNOW  23  21  93 N7        29.78F WCI  15
ORR            MIX PCPN  23  19  86 NE3       29.70F
COOK           LGT SNOW  25  21  86 N5G16     29.71F WCI  19
WALKER         LGT SNOW  25  22  89 N6        29.69S WCI  18
$$
MNZ012-019>021-037-261400-
   Northeast Minnesota

CITY           SKY/WX    TMP DP  RH WIND       PRES   REMARKS
DULUTH         LGTSLEET  32  30  92 NE10      29.60S FOG     WCI  24
ELY            LGT SNOW  25  23  93 NE8G17    29.69S WCI  16
HIBBING        MIX PCPN  25  23  92 NE12      29.66F FOG     WCI  14
EVELETH        LGT SNOW  26  22  85 NE6       29.67F WCI  20
DULUTH HARBOR  MIX PCPN  34  34 100 NE26G35   29.63F WCI  21
TWO HARBORS    MIX PCPN  36  30  80 NE7       29.61S
SILVER BAY     LGT RAIN  32  30  93 NE8       29.62F WCI  25
GRAND MARAIS     N/A     32  29  88 NE7       29.68F WCI  26
G MARAIS ARPRT LGT SNOW  25  19  80 N5        29.64S WCI  19
$$
MNZ029>031-032-039>041-046>048-054>057-064-261400-
   West Central Minnesota

CITY           SKY/WX    TMP DP  RH WIND       PRES   REMARKS
FERGUS FALLS   LGT SNOW  30  30 100 NE5       29.69R WCI  25
WHEATON        LGT SNOW  30  28  93 NW17G23   29.71S WCI  18
MORRIS         CLOUDY    34  34 100 N12       29.65S FOG     WCI  25
ALEXANDRIA     MIX PCPN  32  29  88 N16       29.64R WCI  21
ELBOW LAKE     DRIZZLE   32  31  96 N10       29.67S WCI  24
WADENA         MIX PCPN  28  27  93 N5        29.64S WCI  23
GLENWOOD       MIX PCPN  30  30 100 N10       29.63R WCI  21
APPLETON       CLOUDY    36  32  87 N17       29.65S
BENSON         CLOUDY    36  30  80 NE13      29.65S
ORTONVILLE     CLOUDY    32  30  93 NW12G20   29.68R FOG     WCI  23
MADISON        CLOUDY    36  36 100 N15       29.66R
WILLMAR        MIX PCPN  36  36 100 N14       29.62R
$$
MNZ033>034-036-042>043-049>051-058-059-261400-
   Central Minnesota

CITY           SKY/WX    TMP DP  RH WIND       PRES   REMARKS
ST CLOUD       LGT RAIN  35  33  92 NE12      29.57R WCI  27
SAUK CENTRE    MIX PCPN  32  30  94 N12       29.61S WCI  23
PAYNESVILLE    DRIZZLE   33  33 100 N12G21    29.59S WCI  24
AITKIN         MIX PCPN  32  27  80 N12G18    29.60S WCI  23
PINE RIVER     MIX PCPN  28  28 100 N7        29.68S WCI  21
BRAINERD       MIX PCPN  30  28  92 NE12      29.62S FOG     WCI  20
STAPLES        MIX PCPN  28  28 100 CALM      29.63S
LONG PRAIRIE   MIX PCPN  32  30  93 CALM      29.61S
LITTLE FALLS   LGT SNOW  32  30  93 N5        29.60R WCI  27
LITCHFIELD     DRIZZLE   36  36 100 VRB9      29.57R
BUFFALO        RAIN      34  32  91 N12       29.55S WCI  26
MAPLE LAKE     DRIZZLE   36  34  94 N9        29.56S
HUTCHINSON     RAIN      37  37  97 N14       29.56R
$$
MNZ037-044-045-052-053-261400-
   East Central Minnesota

CITY           SKY/WX    TMP DP  RH WIND       PRES   REMARKS
PRINCETON      LGT RAIN  36  32  87 N15       29.56R
MORA           MIX PCPN  32  30  93 NE10G16   29.57F WCI  24
CAMBRIDGE      MIX PCPN  36  32  87 N7G20     29.52S
RUSH CITY      LGT RAIN  33  31  94 N8G17     29.54S WCI  26
MOOSE LAKE     LGT SNOW  32  30  93 NE12      29.57S WCI  23
HINCKLEY       MIX PCPN  34  32  93 NE12G17   29.55F WCI  25
CLOQUET        LGT SNOW  32  28  86 N5        29.60S WCI  27
MCGREGOR       CLOUDY    32  30  93 NE9       29.61S WCI  24
$$
MNZ071>073-080-081-089-090-097-098-261400-
   Southwest Minnesota

CITY           SKY/WX    TMP DP  RH WIND       PRES   REMARKS
MONTEVIDEO     CLOUDY    34  34 100 N14G21    29.64R WCI  24
GRANITE FALLS  CLOUDY    37  35  93 NW16      29.64S
CANBY          CLOUDY    34  33  96 NW14      29.66S WCI  24
MARSHALL       LGT RAIN  34  32  92 N22G29    29.62S WCI  22
REDWOOD FALLS  MIX PCPN  36  33  89 NW9G21    29.59R FOG
OLIVIA         CLOUDY    34  32  93 N14G20    29.59S WCI  24
PIPESTONE      CLOUDY    34  28  80 N13G20    29.61S WCI  25
WINDOM         CLOUDY    36  34  93 NW20G29   29.57R
WORTHINGTON    CLOUDY    34  33  96 N22G29    29.58S WCI  22
JACKSON        CLOUDY    34  34 100 NW24G36   29.55S WCI  21
TRACY          LGT SNOW  35  34  98 N20       29.61R WCI  24
SLAYTON        CLOUDY    32  32  99 NW16G25   29.60R WCI  22
$$
MNZ065>067-074>077-082>085-091>093-261400-
   South Central Minnesota

CITY           SKY/WX    TMP DP  RH WIND       PRES   REMARKS
MANKATO        LGT RAIN  39  38  96 N14       29.51R FOG
NEW ULM        DRIZZLE   36  36 100 NW20      29.54S
ST JAMES       CLOUDY    37  36  93 NW20G28   29.55R
FAIRMONT       CLOUDY    38  36  92 NW26      29.51F
GLENCOE        LGT RAIN  36  36 100 N12G18    29.54R
FARIBAULT      LGT RAIN  37  37 100 NW12G18   29.48R
OWATONNA       DRIZZLE   39  37  93 N17       29.46S
WASECA         LGT RAIN  39  37  93 NW14      29.49R
ALBERT LEA     CLOUDY    41  41 100 NW14      29.45R FOG
$$
MNZ078>079-086>088-094>096-261400-
   Southeast Minnesota

CITY           SKY/WX    TMP DP  RH WIND       PRES   REMARKS
ROCHESTER      LGT RAIN  47  47 100 N16       29.40R VSB 1/4
RED WING       DRIZZLE   41  37  87 N8        29.44S
STANTON        LGT RAIN  40  37  90 N16       29.45S
DODGE CENTER   DRZL/FOG  43  41  93 N14       29.42R VSB 1
WINONA         RAIN      55  54  94 NW6       29.38S
AUSTIN         DRZL/FOG  45  43  93 N16       29.41R VSB 1
PRESTON        CLOUDY    53  51  95 CALM      29.38S FOG
$$
ABBREVIATIONS USED IN REMARKS
   TC - TEMPERATURES IN CELSIUS
  WCI - WIND CHILL INDEX
   HX - HEAT INDEX
  VSB - VISIBILITY
$$




USA.gov is the U.S. government's official web portal to all federal, state and local government web resources and services.